Find Starlink 3116

NORAD ID: 49146 Int'l Des: 2021-082 Owner: SPXS Country: US Constellation: starlink operational
LEOCIRCULAR

Live Position

Loading 3D Globe...

About Starlink 3116

Description loading...

Upcoming Passes

Passes for default location (London). Set your location on the main map for personalized predictions.

Altitude History

Loading altitude history...

Two-Line Element Set

1 49146U 21082S 26121.77515909 .00000072 00000-0 14037-4 0 9990
2 49146 69.9993 141.5722 0004033 265.6541 94.4157 14.97523421255552
Epoch: May 1, 2026 • Age: 12 hours

Current Status

Altitude 583.1 km
Velocity 7.57 km/s
Sub-Earth Point 46.40°N, 18.24°W
Launch Date Sep 14, 2021
Age 4.6 years
Type internet

Technical Details

Classification Payload
Mass 297.00 kg
Dry Mass 275.00 kg
Total Mass 297.00 kg
Length 0.20 m
Diameter 2.80 m
Span 9.00 m
Shape Box + pan
Manufacturer SPXS
Bus Type Starlink
Phase Status In Orbit
Owner/State SPXS/US

Most Searched